Location: Caltech
(34.1382°N, 118.1253°W)
Time: 23:27:03
(UTC-07:00)

AO-27 - Visible Passes

Search period start: 26 May 2016 00:00
Search period end: 05 June 2016 00:00
Orbit: 785 x 798 km, 98.8° (Epoch: 26 May)

Date Brightness Start Highest point End Pass type
(mag) Time Alt. Az. Time Alt. Az. Time Alt. Az.
26 May 9.0 03:03:26 10° NE 03:08:04 32° E 03:10:12 23° SE visible
26 May 8.9 04:43:07 10° NNW 04:47:22 26° WNW 04:50:57 13° WSW visible
27 May 9.9 02:35:42 10° NE 02:38:52 16° E 02:40:52 13° ESE visible
27 May 8.0 04:13:33 10° N 04:18:35 50° WNW 04:21:38 23° SW visible
28 May 7.6 03:44:24 10° NNE 03:49:40 84° ESE 03:52:18 30° S visible
29 May 8.6 03:15:41 10° NNE 03:20:37 42° E 03:22:59 27° SSE visible
29 May 9.2 04:56:02 10° NNW 04:59:46 20° WNW 05:03:30 10° WSW visible
30 May 9.6 02:47:31 10° NE 02:51:28 22° E 02:53:39 17° SE visible
30 May 8.4 04:26:14 10° N 04:31:01 38° WNW 04:34:24 18° SW visible
31 May 10.3 02:21:31 10° E 02:22:14 10° E 02:22:56 10° E visible
31 May 7.6 03:56:55 10° N 04:02:09 74° WNW 04:05:05 27° SSW visible
01 Jun 8.1 03:28:01 10° NNE 03:33:10 57° E 03:35:44 29° SSE visible
01 Jun 9.5 05:09:10 10° NNW 05:12:08 15° WNW 05:15:05 10° W visible
02 Jun 9.2 02:59:34 10° NE 03:04:05 29° E 03:06:24 21° SE visible
02 Jun 8.7 04:38:59 10° N 04:43:26 29° WNW 04:47:10 13° WSW visible
03 Jun 10.0 02:32:04 10° ENE 02:34:52 14° E 02:37:04 11° ESE visible
03 Jun 7.9 04:09:30 10° N 04:14:38 56° WNW 04:17:50 22° SW visible
04 Jun 7.7 03:40:26 10° NNE 03:45:41 76° ESE 03:48:29 28° S visible
